Regional Weather Roundup
Issued by NWS

Home | Current Version | Previous Version | Text Only | Print | Product List | Glossary Off
Versions: 1 2 3 4 5 6 7 8 9 10 11 12 13 14 15 16 17 18 19 20 21 22 23 24 25 26 27 28 29 30 31 32 33 34 35 36 37 38 39 40 41 42 43 44 45 46 47 48 49 50

000
ASUS43 KLMK 250302
RWRKY
KENTUCKY REGIONAL WEATHER ROUNDUP
NATIONAL WEATHER SERVICE LOUISVILLE KY
1100 PM EDT TUE APR 24 2018

NOTE "FAIR" INDICATES FEW OR NO CLOUDS BELOW 12,000 FEET
WITH NO SIGNIFICANT WEATHER AND/OR OBSTRUCTIONS TO VISIBILITY.

KYZ001>023-026-027-061>063-070>075-250400-
WESTERN AND SOUTH CENTRAL KENTUCKY

CITY           SKY/WX    TMP DP  RH WIND       PRES   REMARKS
PADUCAH        MOCLDY    60  53  77 CALM      30.00R
HENDERSON      FAIR      56  55  97 NW3       29.99S FOG
OWENSBORO      CLOUDY    56  54  93 NW7       29.98R
HOPKINSVILLE   NOT AVBL
BOWLING GREEN  CLOUDY    57  55  93 NW6       29.96S
GLASGOW        NOT AVBL
$$

KYZ024-025-028>034-038-045-046-053-250400-
NORTH CENTRAL KENTUCKY

CITY           SKY/WX    TMP DP  RH WIND       PRES   REMARKS
LOUISVILLE/SDF CLOUDY    56  54  93 NW7       29.93S
LOUISVILLE/LOU CLOUDY    56  56 100 NW6       29.94R FOG
FORT KNOX      NOT AVBL
$$

KYZ035>037-039>044-047>052-055>060-089>105-250400-
NORTHEAST KENTUCKY

CITY           SKY/WX    TMP DP  RH WIND       PRES   REMARKS
LEXINGTON      CLOUDY    56  53  90 NW5       29.91S
COVINGTON      CLOUDY    54  52  93 N9        29.91S
FRANKFORT      CLOUDY    56  52  86 NW3       29.90S
$$

KYZ054-064>069-076>088-106>120-250400-
SOUTHEAST KENTUCKY

CITY           SKY/WX    TMP DP  RH WIND       PRES   REMARKS
JACKSON        CLOUDY    55  53  93 NW6       29.88F
LONDON         CLOUDY    56  54  93 NW5       29.89S
SOMERSET       NOT AVBL
MIDDLESBORO    CLOUDY    56  56 100 CALM      29.89R
MONTICELLO     CLOUDY    56  54  93 NW6       29.94R
$$





USA.gov is the U.S. government's official web portal to all federal, state and local government web resources and services.